Flag for Philippines Weather past 2 weeks in Mabalacat, Philippines

Now
77 °F

Light rain. Mostly cloudy.


Feels Like: 78 °F
Forecast: 76 / 82 °F
Wind: 3 mph from South

Location: Clarkfield Pampanga International Airport

Current Time: Jul 31, 2014 at 11:05:11 PM

Latest Report: Jul 31, 2014 at 10:00 PM


Visibility: 5 mi

Pressure: 29.77 "Hg

Humidity: 100%

Dew point: 77 °F

Location of MabalacatLocation

Historic Weather in Mabalacat — Graph

°F

Mabalacat temperature yesterday

Maximum temperature yesterday: 88 °F (at 12:00 PM)
Minimum temperature yesterday: 75 °F (at 3:00 AM)
Average temperature yesterday: 80 °F

Past Weeks' High & Low Weather Summary

 TemperatureHumidityPressure
High88 °F (Jul 20, 1:00 PM)100% (Jul 17, 12:00 AM)29.92 "Hg (Jul 17, 12:00 AM)
Low72 °F (Jul 17, 5:00 AM)66% (Jul 19, 1:00 PM)29.56 "Hg (Jul 21, 2:00 PM)
Average79 °F92%29.75 "Hg
* Reported Jul 16 10:00 PM — Jul 31 10:00 PM, Mabalacat, Weather by CustomWeather, © 2014

Note: Actual official high and low records may vary slightly from our data, if they occured in-between our weather recording intervals... More about our weather records

Advertising

Mabalacat weather history for previous 24 hours

 ConditionsComfort  
Time TempWeatherWind HumidityBarometerVisibility
10:00 PM
Jul 31
77 °FLight rain. Mostly cloudy.3 mph100%29.77 "Hg5 mi
9:00 PM77 °FLight rain. Mostly cloudy.3 mph100%29.74 "Hg5 mi
8:00 PM79 °FLight rain. Mostly cloudy.5 mph100%29.74 "Hg5 mi
7:00 PM79 °FLight rain. Mostly cloudy.5 mph100%29.71 "Hg5 mi
6:00 PM81 °FMore clouds than sun.1 mph89%29.71 "HgN/A
5:00 PM82 °FBroken clouds.3 mph89%29.68 "HgN/A
4:00 PM81 °FBroken clouds.12 mph94%29.68 "Hg5 mi
3:00 PM84 °FBroken clouds.2 mph84%29.68 "Hg5 mi
2:00 PM84 °FPartly sunny.5 mph79%29.71 "HgN/A
1:00 PM84 °FPartly sunny.5 mph84%29.71 "HgN/A
12:00 PM79 °FBroken clouds.10 mph100%29.74 "Hg6 mi
11:00 AM84 °FBroken clouds.17 mph79%29.74 "HgN/A
10:00 AM86 °FBroken clouds.2 mph75%29.74 "Hg6 mi
9:00 AM82 °FBroken clouds.1 mph84%29.74 "Hg6 mi
8:00 AM81 °FBroken clouds.2 mph89%29.74 "Hg6 mi
7:00 AM77 °FBroken clouds.2 mph100%29.71 "Hg6 mi
6:00 AM77 °FBroken clouds.6 mph100%29.71 "HgN/A
5:00 AM77 °FPassing clouds.7 mph94%29.71 "HgN/A
4:00 AM77 °FPassing clouds.5 mph100%29.71 "HgN/A
3:00 AM77 °FPartly cloudy.6 mph100%29.71 "HgN/A
2:00 AM77 °FPartly cloudy.6 mph100%29.71 "HgN/A
12:00 AM77 °FPartly cloudy.7 mph100%29.74 "HgN/A
11:00 PM
Jul 30
77 °FPartly cloudy.5 mph100%29.74 "HgN/A
Weather by CustomWeather, © 2014

See weather overviewHow to use our weather pages